Regional Weather Roundup
Issued by NWS

Home | Current Version | Previous Version | Text Only | Print | Product List | Glossary On
Versions: 1 2 3 4 5 6 7 8 9 10 11 12 13 14 15 16 17 18 19 20 21 22 23 24 25 26 27 28 29 30 31 32 33 34 35 36 37 38 39 40 41 42 43 44 45 46 47 48 49 50
000
ASUS44 KLIX 222112
RWRLA
LOUISIANA WEATHER ROUNDUP
NATIONAL WEATHER SERVICE NEW ORLEANS LA
400 PM CDT FRI MAY 22 2015

NOTE: "FAIR" INDICATES FEW OR NO CLOUDS BELOW 12,000 FEET WITH NO
      SIGNIFICANT WEATHER AND/OR OBSTRUCTIONS TO VISIBILITY.
      SKY/WX - SKY CONDITION AND SIGNIFICANT WEATHER.
      TMP - AIR TEMPERATURE.    DP   - DEWPOINT TEMPERATURE.
      RH  - RELATIVE HUMIDITY.  PRES - PRESSURE.
      HX  - HEAT INDEX.         WCI  - WIND CHILL INDEX.

*  THESE STATIONS ARE NOT NWS OR FAA STATIONS AND ARE NOT UNDER
   NWS QUALITY CONTROL.

LAZ040-048-061>063-065-066-069-222200-
SOUTHEAST LOUISIANA

CITY           SKY/WX    TMP DP  RH WIND       PRES   REMARKS
N.O. AUDUBON     N/A     82  68  62 MISG        N/A
N.O. INTL ARPT MOSUNNY   82  65  56 NE6       30.14F
N.O. LAKEFRONT SUNNY     83  64  52 E7        30.15F
SLIDELL        PTSUNNY   81  68  64 CALM      30.14S
BATON ROUGE    PTSUNNY   81  68  64 NE7       30.13F
BOOTHVILLE     PTSUNNY   78  70  76 E10       30.14F
BELLE CHASSE   MOSUNNY   80  66  62 E5        30.14F
BOGALUSA*        N/A     82  63  51 CALM      30.16F
GALLIANO*      CLOUDY    81  69  68 MISG      30.15S
NEW ROADS*     CLOUDY    78  67  67 CALM      30.14F
GONZALES*      CLOUDY    82  68  63 NE3       30.13F
HAMMOND*       CLOUDY    82  64  54 CALM      30.16S
HOUMA*         NOT AVBL
PORT FOURCHON* CLOUDY    79  72  78 E10G16    30.14F

$$

LAZ041-044-053-054-222200-
SOUTHWEST LOUISIANA

CITY           SKY/WX    TMP DP  RH WIND       PRES   REMARKS
LAKE CHARLES   CLOUDY    80  69  69 E9        30.12F
LAFAYETTE      PTSUNNY   78  68  71 CALM      30.13F
PATTERSON      PTSUNNY   79  68  69 NE3       30.14F
SALT POINT       N/A     81  71  71 SE6       30.12F
NEW IBERIA     CLOUDY    81  69  67 E8        30.14F
CHENAULT AIRPK NOT AVBL

$$

LAZ027-028-222200-
CENTRAL LOUISIANA

CITY           SKY/WX    TMP DP  RH WIND       PRES   REMARKS
FORT POLK      MOSUNNY   77  65  67 VRB6      30.13F
ALEXANDRIA INT MOSUNNY   76  64  66 SE7       30.14F
ALEXANDRIA     PTSUNNY   78  63  59 E5        30.15F

$$

LAZ001-002-222200-
NORTHWEST LOUISIANA

CITY           SKY/WX    TMP DP  RH WIND       PRES   REMARKS
SHREVEPORT     MOSUNNY   75  60  59 SE6       30.16S
BARKSDALE AFB  SUNNY     77  61  58 SE7       30.16S
DTN SHREVEPORT SUNNY     74  59  59 CALM      30.16F

$$

LAZ014-016-222200-
NORTHEAST LOUISIANA

CITY           SKY/WX    TMP DP  RH WIND       PRES   REMARKS
MONROE         SUNNY     74  57  55 E7        30.19F
TALLULAH       SUNNY     77  55  46 NE5       30.17F

$$




USA.gov is the U.S. government's official web portal to all federal, state and local government web resources and services.